GW1544 Weather Reports


time (UTC)temp
F
wind
direction
speed
knots
gust
knots
rain 1hr
in
rain 24hr
in
rain mn
in
humidity
%
barometer
mb
20260503054237 36 170 0.0 0.0 0.00 0.00 0.00 88 1026.0
20260503053623 36 170 0.0 0.0 0.00 0.00 0.00 88 1026.0
20260503053051 36 170 0.0 0.0 0.00 0.00 0.00 88 1026.0
20260503052424 36 170 0.0 0.0 0.00 0.00 0.00 88 1026.0
20260503051854 36 170 0.0 0.0 0.00 0.00 0.00 88 1026.0
20260503051244 36 170 0.0 0.0 0.00 0.00 0.00 88 1026.0
20260503050649 36 177 0.0 0.0 0.00 0.00 0.00 88 1026.0
20260503050053 36 192 0.0 0.0 0.00 0.00 0.00 88 1026.0
20260503045418 36 191 0.0 0.0 0.00 0.00 0.00 87 1026.0
20260503044845 36 165 0.0 0.0 0.00 0.00 0.00 86 1026.0
20260503044242 36 162 0.0 0.0 0.00 0.00 0.00 86 1025.7
20260503043639 37 160 0.0 0.0 0.00 0.00 0.00 85 1025.7
20260503043016 37 171 0.0 0.0 0.00 0.00 0.00 85 1025.7
20260503042443 37 164 0.0 0.0 0.00 0.00 0.00 84 1025.7
20260503041823 37 164 0.0 0.0 0.00 0.00 0.00 84 1025.7
20260503040623 38 160 0.0 0.0 0.00 0.00 0.00 83 1025.7
20260503040047 38 158 0.0 0.0 0.00 0.00 0.00 82 1025.7
20260503035451 39 160 0.0 0.0 0.00 0.00 0.00 82 1025.7
20260503034851 39 162 0.0 0.0 0.00 0.00 0.00 82 1025.7
20260503034216 40 176 0.0 0.0 0.00 0.00 0.00 82 1025.7
20260503033638 40 311 1.7 1.7 0.00 0.00 0.00 82 1025.7
20260503032419 40 317 1.7 1.7 0.00 0.00 0.00 81 1025.3
20260503031839 41 189 1.7 2.6 0.00 0.00 0.00 80 1025.3
20260503031244 41 318 2.6 2.6 0.00 0.00 0.00 80 1025.3
20260503030642 41 140 0.0 2.6 0.00 0.00 0.00 80 1025.3
20260503030024 41 217 0.0 3.5 0.00 0.00 0.00 80 1025.3
20260503025424 41 309 2.6 2.6 0.00 0.00 0.00 81 1025.3
20260503024829 42 308 2.6 2.6 0.00 0.00 0.00 80 1025.3
20260503024233 42 170 0.0 2.6 0.00 0.00 0.00 80 1025.0
20260503023618 42 151 0.0 2.6 0.00 0.00 0.00 79 1025.0
20260503023036 42 131 0.9 2.6 0.00 0.00 0.00 80 1025.0
20260503022451 42 153 0.0 2.6 0.00 0.00 0.00 79 1025.0
20260503021851 43 307 2.6 2.6 0.00 0.00 0.00 78 1025.0
20260503021241 43 273 1.7 2.6 0.00 0.00 0.00 78 1025.0
20260503020644 43 297 0.0 1.7 0.00 0.00 0.00 77 1024.7
20260503020048 43 226 0.0 1.7 0.00 0.00 0.00 77 1024.7
20260503014817 44 304 1.7 2.6 0.00 0.00 0.00 77 1024.3
20260503014252 44 208 0.9 1.7 0.00 0.00 0.00 77 1024.3
20260503013626 44 289 0.0 2.6 0.00 0.00 0.00 76 1024.3
20260503013014 44 284 1.7 2.6 0.00 0.00 0.00 76 1024.3
20260503011811 45 292 0.9 1.7 0.00 0.00 0.00 74 1024.0
20260503011231 45 160 0.0 1.7 0.00 0.00 0.00 73 1024.0
20260503010623 46 175 0.9 2.6 0.00 0.00 0.00 74 1023.7
20260503010028 46 211 0.0 1.7 0.00 0.00 0.00 73 1023.7
20260503005413 46 169 0.9 1.7 0.00 0.00 0.00 73 1023.7
20260503004843 46 173 0.0 0.0 0.00 0.00 0.00 72 1023.7
20260503004211 47 239 0.0 0.9 0.00 0.00 0.00 74 1023.7
20260503003641 47 210 0.0 1.7 0.00 0.00 0.00 75 1023.7
20260503003018 47 239 0.0 1.7 0.00 0.00 0.00 74 1023.3
20260503001815 48 179 0.0 1.7 0.00 0.00 0.00 72 1023.3
20260503001232 48 154 0.0 1.7 0.00 0.00 0.00 72 1023.3
20260503000048 48 145 0.0 2.6 0.00 0.00 0.00 70 1023.0
20260502235410 49 194 1.7 1.7 0.00 0.00 0.00 71 1023.0
20260502234841 49 209 0.0 2.6 0.00 0.00 0.00 69 1023.0
20260502234245 50 291 1.7 2.6 0.00 0.00 0.00 68 1023.0
20260502233641 51 159 0.9 0.9 0.00 0.00 0.00 64 1023.0
20260502232429 52 189 0.0 0.0 0.00 0.00 0.00 52 1023.0
20260502231840 53 210 3.5 3.5 0.00 0.00 0.00 47 1023.0
20260502231212 54 303 1.7 3.5 0.00 0.00 0.00 48 1023.0
20260502230630 54 162 0.0 1.7 0.00 0.00 0.00 48 1023.0
20260502230040 54 163 0.9 2.6 0.00 0.00 0.00 50 1023.0
20260502225434 53 43 1.7 1.7 0.00 0.00 0.00 48 1023.0
20260502224832 53 162 1.7 5.2 0.00 0.00 0.00 49 1023.0
20260502224227 54 148 1.7 3.5 0.00 0.00 0.00 49 1023.0
20260502223035 54 161 2.6 5.2 0.00 0.00 0.00 47 1023.0
20260502222421 54 156 0.0 0.0 0.00 0.00 0.00 49 1022.6
20260502221839 54 166 0.0 0.0 0.00 0.00 0.00 48 1022.6
20260502221254 54 158 0.0 2.6 0.00 0.00 0.00 50 1022.6
20260502220621 54 152 1.7 2.6 0.00 0.00 0.00 49 1022.6
20260502220030 54 312 2.6 3.5 0.00 0.00 0.00 46 1022.6
20260502215411 55 195 0.9 1.7 0.00 0.00 0.00 49 1022.6
20260502214823 55 167 1.7 7.0 0.00 0.00 0.00 48 1022.6
20260502213651 55 190 2.6 3.5 0.00 0.00 0.00 47 1022.6
20260502213041 55 109 1.7 3.5 0.00 0.00 0.00 48 1022.3
20260502212448 55 159 1.7 1.7 0.00 0.00 0.00 54 1022.3
20260502211814 54 145 0.0 2.6 0.00 0.00 0.00 49 1022.3
20260502211238 54 150 2.6 3.5 0.00 0.00 0.00 55 1022.3
20260502210627 55 158 2.6 3.5 0.00 0.00 0.00 51 1022.3
20260502210034 55 253 2.6 3.5 0.00 0.00 0.00 46 1022.3
20260502205414 55 159 0.0 0.0 0.00 0.00 0.00 49 1022.3
20260502204235 55 239 0.9 6.1 0.00 0.00 0.00 45 1022.3
20260502203612 56 238 5.2 5.2 0.00 0.00 0.00 46 1022.6
20260502203052 56 215 2.6 4.3 0.00 0.00 0.00 46 1022.6
20260502202443 56 202 2.6 2.6 0.00 0.00 0.00 45 1022.6
20260502201845 57 175 1.7 3.5 0.00 0.00 0.00 45 1022.6
20260502201211 56 346 0.9 6.1 0.00 0.00 0.00 44 1022.6
20260502200650 56 148 0.0 1.7 0.00 0.00 0.00 49 1022.6
20260502200039 56 185 3.5 5.2 0.00 0.00 0.00 45 1023.0
20260502195414 56 180 0.0 0.0 0.00 0.00 0.00 46 1022.6
20260502194838 55 89 1.7 4.3 0.00 0.00 0.00 49 1023.0
20260502194248 56 177 2.6 4.3 0.00 0.00 0.00 46 1023.0
20260502193634 56 173 2.6 4.3 0.00 0.00 0.00 46 1023.0
20260502193038 56 87 1.7 3.5 0.00 0.00 0.00 44 1022.6
20260502192426 56 281 3.5 3.5 0.00 0.00 0.00 43 1023.0
20260502191852 58 183 1.7 4.3 0.00 0.00 0.00 45 1023.0
20260502190615 55 171 1.7 1.7 0.00 0.00 0.00 48 1023.0
20260502190018 56 184 3.5 4.3 0.00 0.00 0.00 45 1023.0
20260502185437 56 179 2.6 2.6 0.00 0.00 0.00 45 1023.3
20260502184255 56 119 1.7 4.3 0.00 0.00 0.00 47 1023.3
20260502183654 56 284 1.7 2.6 0.00 0.00 0.00 46 1023.3
20260502183016 56 187 0.9 3.5 0.00 0.00 0.00 46 1023.3
20260502182440 57 56 2.6 3.5 0.00 0.00 0.00 44 1023.3
20260502181833 58 291 1.7 6.1 0.00 0.00 0.00 42 1023.3
20260502181254 57 29 1.7 4.3 0.00 0.00 0.00 45 1023.3
20260502180621 57 139 3.5 4.3 0.00 0.00 0.00 43 1023.3
20260502164244 54 163 3.5 6.1 0.00 0.00 0.00 48 1024.0
20260502163631 54 149 2.6 5.2 0.00 0.00 0.00 48 1024.0
20260502163054 54 16 2.6 9.6 0.00 0.00 0.00 46 1024.0
20260502162442 55 135 2.6 3.5 0.00 0.00 0.00 46 1024.0
20260502161816 56 140 2.6 5.2 0.00 0.00 0.00 52 1024.0
20260502161221 55 159 4.3 7.0 0.00 0.00 0.00 47 1024.0
20260502160623 58 161 3.5 5.2 0.00 0.00 0.00 44 1024.0
20260502151833 55 146 2.6 6.1 0.00 0.00 0.00 48 1024.3
20260502151241 56 160 0.0 5.2 0.00 0.00 0.00 53 1024.3
20260502150650 54 179 1.7 5.2 0.00 0.00 0.00 59 1024.3
20260502130631 46 193 0.0 0.0 0.00 0.00 0.00 84 1024.3
20260502123636 43 152 0.0 0.0 0.00 0.00 0.00 91 1024.3
20260502122440 42 153 0.0 0.0 0.00 0.00 0.00 96 1024.3
20260502121222 41 156 0.0 0.0 0.00 0.00 0.00 97 1024.3
20260502120644 40 153 0.0 0.0 0.00 0.00 0.00 97 1024.3
20260502115451 38 172 0.0 0.0 0.00 0.00 0.00 98 1024.3
20260502114813 38 160 0.0 0.0 0.00 0.00 0.00 97 1024.3
20260502114232 37 165 0.0 0.0 0.00 0.00 0.00 98 1024.3
20260502113611 36 166 0.0 0.0 0.00 0.00 0.00 99 1024.3
20260502113039 35 164 0.0 0.0 0.00 0.00 0.00 98 1024.3
20260502112437 35 161 0.0 0.0 0.00 0.00 0.00 98 1024.3
20260502111828 35 164 0.0 0.0 0.00 0.00 0.00 98 1024.0
20260502111226 35 169 0.0 0.0 0.00 0.00 0.00 98 1024.0
20260502110017 35 187 0.0 0.0 0.00 0.00 0.00 98 1024.0
20260502105418 35 169 0.0 0.0 0.00 0.00 0.00 98 1024.0
20260502104829 35 189 0.0 0.0 0.00 0.00 0.00 98 1024.0
20260502104217 35 201 0.0 0.0 0.00 0.00 0.00 98 1024.0
20260502103635 35 192 0.0 0.0 0.00 0.00 0.00 98 1024.0
20260502103043 35 175 0.0 0.0 0.00 0.00 0.00 98 1024.0
20260502102419 35 188 0.0 0.0 0.00 0.00 0.00 98 1024.0
20260502101847 35 194 0.0 0.0 0.00 0.00 0.00 97 1024.0
20260502100631 35 210 0.0 0.0 0.00 0.00 0.00 97 1024.0
20260502091252 35 162 0.0 0.0 0.00 0.00 0.00 97 1024.0
20260502090624 35 208 0.0 0.0 0.00 0.00 0.00 97 1024.0
20260502071224 36 167 0.0 0.0 0.00 0.00 0.00 95 1023.7
20260502070652 36 166 0.0 0.0 0.00 0.00 0.00 95 1023.7
20260502070035 36 163 0.0 0.0 0.00 0.00 0.00 95 1023.7
20260502063651 37 167 0.0 0.0 0.00 0.00 0.00 95 1024.0